{"data":{"norad_id":51639,"intl_designator":"2022-012T","name":"ONEWEB-0445","alt_names":[],"object_type":"PAYLOAD","status":"ACTIVE","operator":null,"country":"UK","launch_date":"2022-02-10","launch_site_code":"FRGUI","launch_vehicle":null,"mission":null,"orbit_class":"UNKNOWN","rcs_meters":null,"size_class":null,"mass_kg":null,"dimensions":null,"purposes":["comms"],"wikipedia_slug":null,"has_3d_model":false,"image_url":null,"decayed_at":null,"tle_current":{"epoch":"2026-05-24T23:32:59.663040Z","epoch_age_seconds":66803,"freshness":"FRESH","line1":"1 51639U 22012T   26144.98124610 -.00000356  00000+0 -10569-2 0  9997","line2":"2 51639  87.8866  40.8732 0001643  84.1623 275.9691 13.10375893206301","mean_motion":13.10375893,"eccentricity":0.0001643,"inclination_deg":87.8866,"raan_deg":40.8732,"arg_perigee_deg":84.1623,"mean_anomaly_deg":275.9691,"bstar":-0.0010569,"rev_number":20630,"period_min":109.89213153969,"perigee_km":1220.4566033334,"apogee_km":1222.9539114992,"semimajor_km":7599.8422574163,"source":"CELESTRAK","updated_at":"2026-05-25T13:38:22.579593Z"}}}